Dewpoint
56 57 57 55 56 54 49 46 48 53 52 52 51 50 47 46 47 47 53 51 52 51 49 51 47 45 44 43 43 40 38 34
56 57 58 56 56 53 49 46 47 49 49 49 48 47 48 48 47 49 53 52 52 53 50 50 48 46 46 45 42 41 36 36
55 56 57 58 56 54 50 47 46 45 45 47 48 46 47 47 48 51 52 53 53 52 51 50 49 46 47 45 44 39 37 37
54 54 56 58 57 56 52 49 47 44 45 48 50 49 48 47 48 49 50 52 52 51 52 50 51 49 48 49 46 43 40 37
53 53 54 56 57 57 55 52 49 45 46 49 51 47 45 45 47 48 48 52 52 51 52 51 52 49 49 49 46 45 43 39
54 52 52 54 56 57 57 54 51 48 47 49 49 49 47 47 47 49 51 52 52 51 52 52 51 48 49 47 46 44 41 39
54 54 53 52 55 56 57 56 52 50 49 51 51 51 49 47 49 48 49 50 51 52 52 52 52 49 48 45 45 43 41 38
54 54 53 52 53 54 55 55 54 52 52 52 51 52 52 50 50 49 49 49 50 52 53 52 50 50 47 45 44 43 40 37
53 54 54 53 53 54 54 53 53 53 53 52 52 52 50 50 50 48 48 48 49 52 53 51 49 48 47 45 42 40 41 38
52 54 55 54 53 54 54 52 52 52 53 53 52 52 52 50 51 51 49 51 49 52 53 51 49 47 45 44 42 40 40 39
51 53 56 54 53 54 55 53 51 52 53 53 51 52 52 51 51 52 51 51 51 52 52 51 49 47 45 45 43 40 40 38
50 52 55 55 53 54 55 54 51 51 52 53 53 52 52 52 51 52 52 52 52 52 51 50 48 46 45 44 42 40 39 35
49 51 54 54 53 53 54 54 53 52 52 53 53 54 53 53 52 52 54 52 53 51 50 49 47 45 44 43 41 37 34 34
42 49 51 53 53 53 52 54 54 52 52 52 54 54 54 53 53 53 53 53 52 51 50 49 47 46 43 41 39 35 35 33
39 43 48 52 53 52 52 53 54 53 52 52 54 54 54 54 54 53 54 53 52 52 51 49 49 46 41 39 37 35 33 33
40 43 47 49 53 54 53 53 53 53 52 52 54 55 55 54 54 54 53 53 52 52 51 50 49 45 39 39 36 34 32 32
40 42 42 45 49 52 53 53 54 54 54 53 54 55 54 55 54 54 54 54 53 52 51 50 49 41 37 36 37 33 33 32
42 43 45 46 46 49 52 53 54 54 54 53 53 54 54 54 54 53 53 54 53 52 51 50 48 45 36 35 34 36 31 31
44 46 47 48 48 47 51 53 53 54 53 53 53 53 53 53 53 53 54 54 53 52 52 50 47 41 35 34 34 35 32 31
Lifted_Index
-2 -1 -1 1 2 3 5 7 7 6 5 5 5 5 6 6 6 6 6 5 5 5 5 5 6 7 7 7 7 8 8 9
-2 -2 -1 0 1 3 5 6 7 6 6 5 5 5 5 5 6 6 5 5 5 5 5 5 6 7 7 7 8 8 8 8
-2 -1 -1 -0 1 2 3 5 7 7 6 5 5 5 5 5 5 5 5 5 5 5 5 5 6 6 7 7 8 8 8 8
-1 -1 -1 -0 0 1 2 3 5 7 7 5 5 5 5 5 5 5 5 5 5 5 5 5 5 6 6 7 7 7 7 7
-1 -1 -0 -0 0 1 1 2 3 5 6 5 5 5 5 5 5 5 5 5 5 5 5 5 6 6 6 7 7 7 7 7
-2 -1 -1 -0 -0 0 1 1 2 3 5 5 5 5 4 5 5 5 5 5 5 5 5 5 6 6 7 7 7 7 7 6
-2 -2 -1 -1 -0 0 1 1 1 2 3 4 5 5 5 5 5 5 5 5 5 5 5 6 6 7 7 7 7 7 7 6
-3 -2 -2 -1 -1 -0 1 1 1 1 2 3 4 5 5 5 5 5 5 5 5 5 5 6 7 7 8 7 7 7 6 6
-3 -3 -2 -1 -1 -1 0 1 1 1 2 3 4 4 5 5 5 5 5 5 5 5 5 6 7 7 8 7 7 6 6 6
-3 -3 -3 -2 -1 -1 -0 1 1 1 2 2 4 4 4 4 4 4 4 4 4 5 5 6 7 8 8 7 7 6 6 6
-3 -3 -3 -2 -1 -1 -0 -0 1 1 1 2 3 4 4 4 4 4 4 4 4 5 6 6 7 7 7 7 6 6 6 6
-2 -3 -2 -2 -1 -0 -0 -0 -0 0 0 1 2 3 4 4 4 4 4 4 4 5 6 6 6 6 6 5 5 5 5 5
-2 -2 -2 -2 -1 -0 -0 -0 -0 -0 -0 -0 1 2 3 3 4 4 4 4 4 5 5 5 5 5 4 4 4 4 4 4
-1 -1 -2 -2 -1 -0 -0 -0 -0 -0 -0 -0 -0 0 1 2 3 3 3 4 4 4 5 5 4 4 4 4 4 4 4 4
-0 -0 -1 -2 -1 -1 -0 -0 0 0 -0 -1 -1 -1 -1 -0 1 2 3 3 3 4 4 4 4 4 4 4 4 4 4 4
0 0 -0 -1 -1 -1 -1 -0 -0 0 -0 -0 -1 -1 -2 -1 -1 0 1 2 2 3 4 4 4 3 3 3 3 4 4 4
1 1 1 0 -1 -1 -1 -1 -1 -0 0 0 -0 -1 -1 -2 -2 -1 -0 0 1 2 3 3 3 3 3 3 3 4 4 4
1 1 1 1 0 -0 -1 -1 -1 -0 -0 -0 -0 -0 -1 -1 -2 -2 -2 -1 -0 0 1 3 3 3 2 2 3 4 4 4
1 1 1 1 1 0 -1 -1 -1 -1 -0 -0 -0 -0 -0 -1 -2 -2 -2 -1 -1 -1 0 2 3 3 2 2 3 4 4 5